When you browse on this site, cookies collect data to enhance your experience and personalize the content and advertising you see.
Visit our Privacy Policy to learn more. By continuing to use the site, you agree to this use of cookies and data.
  • En España
  • Lista de países
  • Para 7 días
  • Temperatura del agua
  • El tiempo en el mapa
  • Informadores
  • user-avatar
    Iniciar sesión

    Tiempo cada hora Durres

    Hoy, 10 Abril, Viernes

    Tiempo Temperatura Precipitaciones Viento Presión Humedad
    00:00 +12°C° 0 mm 2 mps 763 mmHg 72%
    01:00 +12°C° 0 mm 2 mps 763 mmHg 73%
    02:00 +11°C° 0 mm 3 mps 763 mmHg 73%
    03:00 +10°C° 0 mm 3 mps 763 mmHg 73%
    04:00 +10°C° 0 mm 3 mps 763 mmHg 73%
    05:00 +11°C° 0 mm 3 mps 763 mmHg 70%
    06:00 +13°C° 0 mm 2 mps 763 mmHg 67%
    07:00 +15°C° 0 mm 2 mps 763 mmHg 64%
    08:00 +16°C° 0 mm 2 mps 763 mmHg 59%
    09:00 +18°C° 0 mm 2 mps 763 mmHg 54%
    10:00 +21°C° 0 mm 1 mps 763 mmHg 49%
    11:00 +20°C° 0 mm 2 mps 763 mmHg 49%
    12:00 +21°C° 0 mm 3 mps 763 mmHg 49%
    13:00 +22°C° 0 mm 4 mps 763 mmHg 50%
    14:00 +21°C° 0 mm 4 mps 762 mmHg 51%
    15:00 +20°C° 0 mm 4 mps 762 mmHg 53%
    16:00 +20°C° 0 mm 4 mps 762 mmHg 55%
    17:00 +18°C° 0 mm 4 mps 762 mmHg 61%
    18:00 +16°C° 0 mm 3 mps 762 mmHg 67%
    19:00 +13°C° 0 mm 3 mps 762 mmHg 73%
    20:00 +13°C° 0 mm 3 mps 763 mmHg 73%
    21:00 +14°C° 0 mm 2 mps 763 mmHg 74%
    22:00 +13°C° 0 mm 2 mps 763 mmHg 75%
    23:00 +13°C° 0 mm 2 mps 763 mmHg 76%

    Mañana, 11 Abril, Sábado

    Tiempo Temperatura Precipitaciones Viento Presión Humedad
    00:00 +13°C° 0 mm 2 mps 763 mmHg 76%
    01:00 +13°C° 0 mm 2 mps 763 mmHg 77%
    02:00 +13°C° 0 mm 2 mps 763 mmHg 77%
    03:00 +12°C° 0 mm 2 mps 763 mmHg 76%
    04:00 +12°C° 0 mm 2 mps 763 mmHg 75%
    05:00 +14°C° 0 mm 2 mps 763 mmHg 71%
    06:00 +15°C° 0 mm 2 mps 763 mmHg 66%
    07:00 +16°C° 0 mm 1 mps 763 mmHg 62%
    08:00 +19°C° 0 mm 1 mps 764 mmHg 57%
    09:00 +21°C° 0 mm 1 mps 764 mmHg 52%
    10:00 +23°C° 0 mm 1 mps 764 mmHg 47%
    11:00 +23°C° 0 mm 2 mps 764 mmHg 48%
    12:00 +23°C° 0 mm 2 mps 763 mmHg 49%
    13:00 +24°C° 0 mm 3 mps 763 mmHg 49%
    14:00 +22°C° 0 mm 3 mps 763 mmHg 51%
    15:00 +21°C° 0 mm 4 mps 763 mmHg 53%
    16:00 +21°C° 0 mm 4 mps 763 mmHg 55%
    17:00 +19°C° 0 mm 4 mps 763 mmHg 61%
    18:00 +17°C° 0 mm 3 mps 763 mmHg 67%
    19:00 +14°C° 0 mm 3 mps 763 mmHg 73%
    20:00 +14°C° 0 mm 3 mps 763 mmHg 74%
    21:00 +14°C° 0 mm 2 mps 764 mmHg 74%
    22:00 +14°C° 0 mm 2 mps 764 mmHg 74%
    23:00 +14°C° 0 mm 2 mps 764 mmHg 75%

    Pasado mañana, 12 Abril, Domingo

    Tiempo Temperatura Precipitaciones Viento Presión Humedad
    00:00 +14°C° 0 mm 2 mps 764 mmHg 76%
    01:00 +14°C° 0 mm 2 mps 764 mmHg 77%
    02:00 +14°C° 0 mm 2 mps 764 mmHg 77%
    03:00 +13°C° 0 mm 2 mps 764 mmHg 77%
    04:00 +13°C° 0 mm 2 mps 764 mmHg 76%
    05:00 +14°C° 0 mm 2 mps 764 mmHg 73%
    06:00 +16°C° 0 mm 2 mps 764 mmHg 70%
    07:00 +17°C° 0 mm 2 mps 764 mmHg 67%
    08:00 +18°C° 0 mm 2 mps 764 mmHg 62%
    09:00 +20°C° 0 mm 2 mps 764 mmHg 58%
    10:00 +21°C° 0 mm 2 mps 764 mmHg 53%
    11:00 +21°C° 0 mm 2 mps 764 mmHg 54%
    12:00 +23°C° 0 mm 2 mps 764 mmHg 55%
    13:00 +22°C° 0 mm 3 mps 764 mmHg 56%
    14:00 +21°C° 0 mm 2 mps 763 mmHg 57%
    15:00 +21°C° 0 mm 2 mps 763 mmHg 57%
    16:00 +21°C° 0 mm 2 mps 762 mmHg 58%
    17:00 +19°C° 0 mm 2 mps 762 mmHg 65%
    18:00 +17°C° 0 mm 3 mps 762 mmHg 72%
    19:00 +14°C° 0 mm 3 mps 762 mmHg 80%
    20:00 +14°C° 0 mm 3 mps 762 mmHg 81%
    21:00 +13°C° 0 mm 3 mps 763 mmHg 81%
    22:00 +13°C° 0 mm 3 mps 763 mmHg 82%
    23:00 +13°C° 0 mm 3 mps 763 mmHg 82%

    13 Abril, Lunes

    Tiempo Temperatura Precipitaciones Viento Presión Humedad
    00:00 +13°C° 0 mm 3 mps 763 mmHg 82%
    01:00 +12°C° 0 mm 3 mps 763 mmHg 82%
    02:00 +12°C° 0 mm 3 mps 763 mmHg 82%
    03:00 +12°C° 0 mm 3 mps 763 mmHg 82%
    04:00 +12°C° 0 mm 3 mps 762 mmHg 82%
    05:00 +13°C° 0 mm 3 mps 762 mmHg 79%
    06:00 +14°C° 0 mm 4 mps 762 mmHg 75%
    07:00 +15°C° 0 mm 4 mps 762 mmHg 72%
    08:00 +17°C° 0 mm 4 mps 762 mmHg 66%
    09:00 +19°C° 0 mm 4 mps 762 mmHg 60%
    10:00 +20°C° 0 mm 4 mps 762 mmHg 54%
    11:00 +20°C° 0 mm 5 mps 762 mmHg 54%
    12:00 +21°C° 0 mm 5 mps 762 mmHg 54%
    13:00 +21°C° 0 mm 6 mps 762 mmHg 54%
    14:00 +20°C° 0 mm 6 mps 762 mmHg 55%
    15:00 +20°C° 0 mm 6 mps 761 mmHg 56%
    16:00 +19°C° 0 mm 6 mps 761 mmHg 56%
    17:00 +17°C° 0 mm 6 mps 761 mmHg 63%
    18:00 +15°C° 0 mm 6 mps 761 mmHg 69%
    19:00 +13°C° 0 mm 6 mps 761 mmHg 75%
    20:00 +13°C° 0 mm 6 mps 761 mmHg 75%
    21:00 +13°C° 0 mm 6 mps 761 mmHg 75%
    22:00 +13°C° 0 mm 6 mps 761 mmHg 75%
    23:00 +11°C° 0 mm 6 mps 761 mmHg 75%

    14 Abril, Martes

    Tiempo Temperatura Precipitaciones Viento Presión Humedad
    00:00 +11°C° 0 mm 6 mps 760 mmHg 76%
    01:00 +10°C° 0 mm 6 mps 760 mmHg 77%
    02:00 +10°C° 0 mm 6 mps 760 mmHg 77%
    03:00 +10°C° 0 mm 6 mps 760 mmHg 76%
    04:00 +10°C° 0 mm 6 mps 759 mmHg 76%
    05:00 +11°C° 0 mm 6 mps 759 mmHg 73%
    06:00 +13°C° 0 mm 6 mps 759 mmHg 70%
    07:00 +14°C° 0 mm 6 mps 759 mmHg 67%
    08:00 +15°C° 0 mm 6 mps 759 mmHg 62%
    09:00 +16°C° 0 mm 7 mps 759 mmHg 57%
    10:00 +18°C° 0 mm 7 mps 759 mmHg 52%
    11:00 +17°C° 0 mm 7 mps 758 mmHg 53%
    12:00 +17°C° 0 mm 7 mps 758 mmHg 53%
    13:00 +17°C° 0 mm 8 mps 758 mmHg 54%
    14:00 +17°C° 0 mm 7 mps 758 mmHg 56%
    15:00 +17°C° 0 mm 6 mps 758 mmHg 57%
    16:00 +16°C° 0 mm 6 mps 757 mmHg 59%
    17:00 +16°C° 0 mm 5 mps 757 mmHg 59%
    18:00 +15°C° 0 mm 4 mps 757 mmHg 60%
    19:00 +14°C° 0 mm 4 mps 757 mmHg 61%
    20:00 +14°C° 0 mm 4 mps 757 mmHg 60%
    21:00 +14°C° 0 mm 4 mps 757 mmHg 59%
    22:00 +14°C° 0 mm 4 mps 757 mmHg 58%
    23:00 +13°C° 0 mm 3 mps 757 mmHg 58%

    15 Abril, Miércoles

    Tiempo Temperatura Precipitaciones Viento Presión Humedad
    00:00 +13°C° 0 mm 3 mps 757 mmHg 59%
    01:00 +13°C° 0 mm 3 mps 757 mmHg 60%
    02:00 +12°C° 0 mm 3 mps 757 mmHg 60%
    03:00 +13°C° 0 mm 2 mps 757 mmHg 60%
    04:00 +12°C° 0 mm 2 mps 757 mmHg 61%
    05:00 +14°C° 0 mm 2 mps 757 mmHg 60%
    06:00 +14°C° 0 mm 3 mps 757 mmHg 59%
    07:00 +15°C° 0 mm 4 mps 758 mmHg 58%
    08:00 +18°C° 0 mm 3 mps 758 mmHg 52%
    09:00 +20°C° 0 mm 3 mps 758 mmHg 46%
    10:00 +21°C° 0 mm 3 mps 758 mmHg 41%
    11:00 +22°C° 0 mm 3 mps 758 mmHg 41%
    12:00 +24°C° 0 mm 3 mps 757 mmHg 41%
    13:00 +24°C° 0 mm 3 mps 757 mmHg 41%
    14:00 +24°C° 0 mm 3 mps 757 mmHg 45%
    15:00 +22°C° 0 mm 3 mps 757 mmHg 49%
    16:00 +21°C° 0 mm 3 mps 757 mmHg 54%
    17:00 +19°C° 0 mm 3 mps 758 mmHg 57%
    18:00 +18°C° 0 mm 2 mps 758 mmHg 60%
    19:00 +16°C° 0 mm 2 mps 758 mmHg 63%
    20:00 +16°C° 0 mm 2 mps 759 mmHg 64%
    21:00 +15°C° 0 mm 1 mps 759 mmHg 65%
    22:00 +15°C° 0 mm 1 mps 759 mmHg 66%
    23:00 +15°C° 0 mm 1 mps 760 mmHg 67%
    Mostrar más